This is the latest recevied weather packets stored in our database for station/object KD6VPH. If no packets are shown the sender has not sent any weather packets the latest 10 day(s).
| Time | Temp. | Humidity | Pressure | Rain* | Wind** | Luminosity | Snow |
|---|---|---|---|---|---|---|---|
| 1777336693 | 13.33° C | 69% | 1016.1 hPa | 0 mm | - | 248 W/m² | - |
| 1777336537 | 13.33° C | 69% | 1016 hPa | 0 mm | - | 248 W/m² | - |
| 1777335937 | 13.33° C | 69% | 1016.1 hPa | 0 mm | - | 248 W/m² | - |
| 1777335337 | 13.33° C | 69% | 1016 hPa | 0 mm | - | 297 W/m² | - |
| 1777334737 | 13.33° C | 70% | 1016 hPa | 0 mm | - | 350 W/m² | - |
| 1777334136 | 13.33° C | 70% | 1015.9 hPa | 0 mm | - | 438 W/m² | - |
| 1777332937 | 13.89° C | 69% | 1015.7 hPa | 0 mm | - | 258 W/m² | - |
| 1777332337 | 13.89° C | 70% | 1015.7 hPa | 0 mm | - | 436 W/m² | - |
| 1777331737 | 13.33° C | 70% | 1015.8 hPa | 0 mm | - | 285 W/m² | - |
| 1777331137 | 13.89° C | 70% | 1015.8 hPa | 0 mm | - | 343 W/m² | - |
| 1777330537 | 13.89° C | 70% | 1015.8 hPa | 0 mm | - | 281 W/m² | - |
| 1777329337 | 14.44° C | 69% | 1015.7 hPa | 0 mm | - | 376 W/m² | - |
| 1777328737 | 14.44° C | 70% | 1015.7 hPa | 0 mm | - | 462 W/m² | - |
| 1777326937 | 13.33° C | 74% | 1015.6 hPa | 0 mm | - | 439 W/m² | - |
| 1777326337 | 13.33° C | 74% | 1015.5 hPa | 0 mm | - | 237 W/m² | - |
| 1777325737 | 13.33° C | 74% | 1015.4 hPa | 0 mm | - | 130 W/m² | - |
| 1777325137 | 13.33° C | 75% | 1015.4 hPa | 0 mm | - | 237 W/m² | - |
| 1777324537 | 13.33° C | 75% | 1015.3 hPa | 0 mm | - | 485 W/m² | - |
| 1777323337 | 12.78° C | 77% | 1015.4 hPa | 0 mm | - | 425 W/m² | - |
| 1777322737 | 12.78° C | 77% | 1015.6 hPa | 0 mm | - | 287 W/m² | - |
| 1777320937 | 12.78° C | 79% | 1015.3 hPa | 0 mm | - | 555 W/m² | - |
| 1777320337 | 12.22° C | 79% | 1015.2 hPa | 0 mm | - | 671 W/m² | - |
| 1777319737 | 11.67° C | 80% | 1015.4 hPa | 0 mm | - | 494 W/m² | - |
| 1777318537 | 11.67° C | 79% | 1015.4 hPa | 0 mm | - | 155 W/m² | - |
| 1777317937 | 11.67° C | 79% | 1015.4 hPa | 0 mm | - | 188 W/m² | - |
* Rain latest hour (hover to see other rain measurements)
** Current wind speed in m/s (hover to see current wind gust speed)